El Paso, TX

11:17 PM MST on January 22, 2018 (GMT -0700)
El Paso International

Weather History for KELP - January, 2014

Change the Weather History Date:

Saturday, January 25, 2014

  Actual Average Record
Temperature  
Mean Temperature 46 °F 46 °F  
Max Temperature 62 °F 59 °F 77 °F (1999)
Min Temperature 30 °F 33 °F 17 °F (1964)
Degree Days  
Heating Degree Days 19 19  
Month to date heating degree days 464 507  
Since 1 July heating degree days 1471 1575  
Cooling Degree Days 0 0  
Month to date cooling degree days 0 0  
Year to date cooling degree days 0 0  
Moisture  
Dew Point 15 °F    
Average Humidity 31    
Maximum Humidity 47    
Minimum Humidity 15    
Precipitation  
Precipitation 0.00 in 0.01 in 0.44 in (1949)
Month to date precipitation 0.00 0.31  
Year to date precipitation 0.00 0.31  
Snow  
Snow 0.00 in - - ()
Month to date snowfall 0.0  
Since 1 July snowfall T  
Snow Depth 0.00 in    
Sea Level Pressure  
Sea Level Pressure 30.16 in    
Wind  
Wind Speed 3 mph (SSE)    
Max Wind Speed 16 mph    
Max Gust Speed 17 mph    
Visibility 10 miles    
Events      
T = Trace of Precipitation, MM = Missing Value Source: NWS Daily Summary

Daily Weather History Graph

Daily Weather History Graph

Search for Another Location

Airport or City:

Trip Planner

Search our weather history database for the weather conditions in past years. The results will help you decide how hot, cold, wet, or windy it might be!

Date:

Astronomy

Jan. 25, 2014 Rise Set
Actual Time 7:02 AM MST 5:33 PM MST
Civil Twilight 6:36 AM MST 5:59 PM MST
Nautical Twilight 6:07 AM MST 6:28 PM MST
Astronomical Twilight 5:38 AM MST 6:57 PM MST
Moon 1:39 AM MST (1/25) 12:35 PM MST (1/25)
Length of Visible Light 11h 22m
Length of Day
10h 30m
Waning Crescent, 33% of the Moon is Illuminated
Jan 25
Waning Crescent
Jan 30
New
Feb 6
First Quarter
Feb 14
Full
Feb 22
Last Quarter

Hourly Weather History & Observations

Time (MST) Temp. Windchill Dew Point Humidity Pressure Visibility Wind Dir Wind Speed Gust Speed Precip Events Conditions
12:51 AM 37.9 °F - 14.0 °F 38% 30.31 in 10.0 mi Calm Calm - N/A   Mostly Cloudy
1:51 AM 35.1 °F 32.2 °F 15.8 °F 45% 30.30 in 10.0 mi NE 3.5 mph - N/A   Mostly Cloudy
2:51 AM 35.1 °F - 16.7 °F 47% 30.28 in 10.0 mi Calm Calm - N/A   Mostly Cloudy
3:51 AM 34.0 °F 29.8 °F 12.0 °F 40% 30.26 in 10.0 mi NNE 4.6 mph - N/A   Mostly Cloudy
4:51 AM 31.1 °F 23.7 °F 12.0 °F 45% 30.25 in 10.0 mi North 8.1 mph - N/A   Mostly Cloudy
5:51 AM 31.1 °F - 13.1 °F 47% 30.27 in 10.0 mi Calm Calm - N/A   Mostly Cloudy
6:51 AM 33.1 °F 30.0 °F 13.1 °F 44% 30.27 in 10.0 mi SSW 3.5 mph - N/A   Overcast
7:51 AM 34.0 °F - 13.1 °F 42% 30.27 in 10.0 mi Calm Calm - N/A   Mostly Cloudy
8:51 AM 36.0 °F 32.1 °F 14.0 °F 41% 30.30 in 10.0 mi South 4.6 mph - N/A   Mostly Cloudy
9:51 AM 39.0 °F 35.7 °F 13.1 °F 35% 30.28 in 10.0 mi South 4.6 mph - N/A   Mostly Cloudy
10:51 AM 48.9 °F - 16.0 °F 27% 30.24 in 10.0 mi Calm Calm - N/A   Mostly Cloudy
11:51 AM 53.1 °F - 16.0 °F 23% 30.19 in 10.0 mi Calm Calm - N/A   Mostly Cloudy
12:51 PM 55.9 °F - 15.1 °F 20% 30.13 in 10.0 mi Calm Calm - N/A   Mostly Cloudy
1:51 PM 60.1 °F - 15.1 °F 17% 30.08 in 10.0 mi Calm Calm - N/A   Mostly Cloudy
2:51 PM 61.0 °F - 12.9 °F 15% 30.06 in 10.0 mi Variable 3.5 mph - N/A   Mostly Cloudy
3:51 PM 61.0 °F - 12.9 °F 15% 30.05 in 10.0 mi Calm Calm - N/A   Scattered Clouds
4:51 PM 61.0 °F - 12.9 °F 15% 30.06 in 10.0 mi NNE 4.6 mph - N/A   Scattered Clouds
5:51 PM 57.9 °F - 12.9 °F 17% 30.06 in 10.0 mi Calm Calm - N/A   Scattered Clouds
6:51 PM 53.1 °F - 12.9 °F 20% 30.06 in 10.0 mi ESE 4.6 mph - N/A   Scattered Clouds
7:51 PM 52.0 °F - 14.0 °F 22% 30.06 in 10.0 mi South 5.8 mph - N/A   Partly Cloudy
8:51 PM 50.0 °F - 16.0 °F 26% 30.05 in 10.0 mi SSE 5.8 mph - N/A   Partly Cloudy
9:51 PM 48.9 °F - 16.0 °F 27% 30.04 in 10.0 mi SSE 4.6 mph - N/A   Partly Cloudy
10:51 PM 51.1 °F - 17.1 °F 26% 30.01 in 10.0 mi ESE 4.6 mph - N/A   Partly Cloudy
11:36 PM 53.6 °F - 21.2 °F 28% 30.08 in 10.0 mi WSW 13.8 mph - N/A   Partly Cloudy
11:51 PM 53.1 °F - 21.9 °F 30% 29.98 in 10.0 mi WSW 15.0 mph - N/A   Partly Cloudy